Regional Weather Roundup
Issued by NWS State College, PA

Home | Current Version | Previous Version | Graphics & Text | Print | Product List | Glossary Off
Versions: 1 2 3 4 5 6 7 8 9 10 11 12 13 14 15 16 17 18 19 20 21 22 23 24 25 26 27 28 29 30 31 32 33 34 35 36 37 38 39 40 41 42 43 44 45 46 47 48 49 50

000
ASUS41 KCTP 300603
RWRCTP

REGIONAL WEATHER ROUNDUP
NATIONAL WEATHER SERVICE STATE COLLEGE PA
200 AM EDT FRI SEP 30 2016

Note: "fair" indicates few or no clouds below 12,000 feet with no
significant weather and/or obstructions to visibility.

* = STATION THAT DOES NOT REPORT PRECIPITATION /E.G. RAIN...SNOW...ETC/
    THUNDER OR FOG.

PAZ002>004-007>009-013>016-020>023-029>032-300700-
WESTERN PENNSYLVANIA

CITY           SKY/WX    TMP DP  RH WIND       PRES   REMARKS
ERIE           CLOUDY    61  57  87 E9        30.21F
MEADVILLE      LGT RAIN  57  54  89 E6        30.21S
FRANKLIN*        N/A     55  52  88 E7        30.23R
NEW CASTLE     RAIN      58  57  97 E13G18    30.18R
BEAVER COUNTY  NOT AVBL
BUTLER*        CLOUDY    55  54  94 NE6       30.22F
PITTSBURGH INT LGT RAIN  58  58 100 E13       30.15S
PITTSBURGH     CLOUDY    58  55  90 VRB5      30.16F
INDIANA*       CLOUDY    57  55  94 VRB7      30.22S
LATROBE        CLOUDY    57  57 100 CALM      30.17F
WASHINGTON CO* CLOUDY    59  55  88 E14       30.14F
$$

PAZ004>006-010>012-017>019-024>028-033>037-041-042-045-046-049>053-300700-
CENTRAL PENNSYLVANIA

CITY           SKY/WX    TMP DP  RH WIND       PRES   REMARKS
BRADFORD       CLOUDY    54  52  93 E9G17     30.26F
DUBOIS         CLOUDY    54  51  90 E12G24    30.22R
CLEARFIELD     CLOUDY    54  54 100 E8        30.24F FOG
JOHNSTOWN      LGT RAIN  54  53  97 E10G22    30.19F FOG
ALTOONA        LGT RAIN  55  55 100 NE8       30.22S FOG
STATE COLLEGE  LGT RAIN  55  53  95 NE9       30.26R
WILLIAMSPORT   CLOUDY    58  52  80 E9        30.28F
SELINSGROVE    CLOUDY    59  54  83 E12       30.27S
FT INDIANTOWN  RAIN      56  55  96 NE13      30.25F
CAPITAL CITY   LGT RAIN  59  55  87 NE12      30.24S
HARRISBURG     LGT RAIN  58  57  97 E5        30.23F
YORK           CLOUDY    58  57  97 E12       30.21F
$$

PAZ038>040-043-044-047-048-054-055-060>062-067>071-300700-
EASTERN PENNSYLVANIA

CITY           SKY/WX    TMP DP  RH WIND       PRES   REMARKS
SCRANTON       LGT RAIN  54  48  80 E12G20    30.32S
MOUNT POCONO   CLOUDY    48  46  93 E17       30.33F
ALLENTOWN      RAIN      55  51  86 NE15G22   30.31S
QUAKERTOWN*    CLOUDY    55  54  94 NE8G17    30.28F
READING        RAIN      57  54  89 NE7       30.28R
LANCASTER      RAIN      57  57 100 E13G22    30.24S
COATESVILLE    RAIN      55  55 100 NE6G15    30.26F
POTTSTOWN      RAIN      56  54  93 NE12G20   30.28S FOG
BLUE BELL      CLOUDY    54  54 100 NE13G21   30.25S
DOYLESTOWN     LGT RAIN  57  55  93 NE13G22   30.27F
WILLOW GROVE   NOT AVBL
NORTH PHILA    RAIN      59  57  93 NE18G31   30.27F FOG
PHILADELPHIA   LGT RAIN  60  58  92 NE17G30   30.22F FOG
$$




USA.gov is the U.S. government's official web portal to all federal, state and local government web resources and services.